Flag for U.S.A. Weather past 2 weeks in Inglewood, California, U.S.A.

Now
59 °F

Clear.


Feels Like: 59 °F
Forecast: 55 / 69 °F
Wind: No wind

Location: Hawthorne Municipal Airport

Current Time: Jan 31, 2015 at 2:54:09 AM

Latest Report: Jan 31, 2015 at 1:53 AM


Visibility: 8 mi

Pressure: 29.85 "Hg

Humidity: 90%

Dew point: 56 °F

Location of InglewoodLocation

Historic Weather in Inglewood — Graph

°F

Inglewood temperature yesterday

Maximum temperature yesterday: 70 °F (at 12:53 PM)
Minimum temperature yesterday: 60 °F (at 10:53 PM)
Average temperature yesterday: 64 °F

Past Weeks' High & Low Weather Summary

 TemperatureHumidityPressure
High83 °F (Jan 25, 12:53 PM)100% (Jan 20, 4:53 AM)30.25 "Hg (Jan 20, 4:53 AM)
Low50 °F (Jan 22, 4:53 AM)8% (Jan 22, 12:53 PM)29.84 "Hg (Jan 30, 1:53 PM)
Average63 °F56%30.08 "Hg
* Reported Jan 16 1:53 AM — Jan 31 1:53 AM, Inglewood, Weather by CustomWeather, © 2014

Note: Actual official high and low records may vary slightly from our data, if they occured in-between our weather recording intervals... More about our weather records

Advertising

Inglewood weather history for previous 24 hours

 ConditionsComfort  
Time TempWeatherWind HumidityBarometerVisibility
1:53 AM
Jan 31
59 °FClear.No wind90%29.85 "Hg8 mi
12:53 AM59 °FClear.No wind90%29.86 "Hg9 mi
11:53 PM
Jan 30
60 °FPassing clouds.No wind90%29.87 "Hg7 mi
10:53 PM60 °FClear.No wind90%29.87 "Hg8 mi
9:53 PM61 °FClear.5 mph87%29.86 "Hg9 mi
8:53 PM61 °FClear.No wind87%29.86 "Hg10 mi
7:53 PM61 °FClear.3 mph87%29.86 "Hg10 mi
6:53 PM63 °FClear.5 mph73%29.85 "Hg10 mi
5:53 PM64 °FPassing clouds.3 mph70%29.85 "Hg10 mi
4:53 PM64 °FOvercast.5 mph70%29.84 "Hg10 mi
3:53 PM66 °FLight rain. Mostly cloudy.5 mph63%29.86 "Hg10 mi
2:53 PM68 °FScattered clouds.8 mph49%29.84 "Hg10 mi
1:53 PM69 °FPassing clouds.7 mph44%29.84 "Hg10 mi
12:53 PM70 °FPassing clouds.7 mph44%29.85 "Hg10 mi
11:53 AM69 °FPartly sunny.No wind45%29.89 "Hg10 mi
10:53 AM68 °FPartly sunny.No wind55%29.91 "Hg10 mi
9:53 AM66 °FOvercast.No wind63%29.93 "Hg10 mi
8:53 AM63 °FPartly sunny.No wind68%29.92 "Hg10 mi
7:53 AM63 °FLight rain. Overcast.No wind73%29.93 "Hg10 mi
6:53 AM63 °FLight rain. Overcast.No wind68%29.92 "Hg10 mi
5:53 AM63 °FOvercast.No wind70%29.91 "Hg10 mi
4:53 AM63 °FLight rain. Overcast.No wind68%29.91 "Hg10 mi
3:53 AM64 °FLight rain. Overcast.No wind61%29.93 "Hg10 mi
2:53 AM63 °FPassing clouds.No wind65%29.94 "Hg10 mi
Weather by CustomWeather, © 2014

See weather overviewHow to use our weather pages